EHI
0 0 0 0 0 0 0 0 0 0 0 0 0 0 0 0 0 0 0 0 0 0 0 0 0 0 0 0 0 0 0 0 0 0 0 0 0 0 0 0 0 0 0
0 0 0 0 0 0 0 0 0 0 0 0 0 0 0 0 0 0 0 0 0 0 0 0 0 0 0 0 0 0 0 0 0 0 0 0 0 0 0 0 0 0 0
0 0 0 0 0 0 0 0 0 0 0 0 0 0 0 0 0 0 0 0 0 0 0 0 0 0 0 0 0 0 0 0 0 0 0 0 0 0 0 0 0 0 0
0 0 0 0 0 0 0 0 0 0 0 0 0 0 0 0 0 0 0 0 0 0 0 0 0 0 0 0 0 0 0 0 0 0 0 0 0 0 0 0 0 0 0
0 0 0 0 0 0 0 0 0 0 0 0 0 0 0 0 0 0 0 0 0 0 0 0 0 0 0 0 0 0 0 0 0 0 0 0 0 0 0 0 0 0 0
0 0 0 0 0 0 0 0 0 0 0 0 0 0 0 0 0 0 0 0 0 0 0 0 0 0 0 0 0 0 0 0 0 0 0 0 0 0 0 0 0 0 0
0 0 0 0 0 0 0 0 0 0 0 0 0 0 0 0 0 0 0 0 0 0 0 0 0 0 0 0 0 0 0 0 0 0 0 0 0 0 0 0 0 0 0
0 0 0 0 0 0 0 0 0 0 0 0 0 0 0 0 0 0 0 0 0 0 0 0 0 0 0 0 0 0 0 0 0 0 0 0 0 0 0 0 0 0 0
0 0 0 0 0 0 0 0 0 0 0 0 0 0 0 0 0 0 0 0 0 0 0 0 0 0 0 0 0 0 0 0 0 0 0 0 0 0 0 0 0 0 0
0 0 0 0 0 0 0 0 0 0 0 0 0 0 0 0 0 0 0 0 0 0 0 0 0 0 0 0 0 0 0 0 0 0 0 0 0 0 0 0 0 0 0
0 0 0 0 0 0 0 0 0 0 0 0 0 0 0 0 0 0 0 0 0 0 0 0 0 0 0 0 0 0 0 0 0 0 0 0 0 0 0 0 0 0 0
0 0 0 0 0 0 0 0 0 0 0 0 0 0 0 0 0 0 0 0 0 0 0 0 0 0 0 0 0 0 0 0 0 0 0 0 0 0 0 0 0 0 0
0 0 0 0 0 0 0 0 0 0 0 0 0 0 0 0 0 0 0 0 0 0 0 0 0 0 0 0 0 0 0 0 0 0 0 0 0 0 0 0 0 0 0
0 0 0 0 0 0 0 0 0 0 0 0 0 0 0 0 0 0 0 0 0 0 0 0 0 0 0 0 0 0 0 0 0 0 0 0 0 0 0 0 0 0 0
0 0 0 0 0 0 0 0 0 0 0 0 0 0 0 0 0 0 0 0 0 0 0 0 0 0 0 0 0 0 0 0 0 0 0 0 0 0 0 0 0 0 0
0 0 0 0 0 0 0 0 0 0 0 0 0 0 0 0 0 0 0 0 0 0 0 0 0 0 0 0 0 0 0 0 0 0 0 0 0 0 0 0 0 0 0
0 0 0 0 0 0 0 0 0 0 0 0 0 0 0 0 0 0 0 0 0 0 0 0 0 0 0 0 0 0 0 0 0 0 0 0 0 0 0 0 0 0 0
0 0 0 0 0 0 0 0 0 0 0 0 0 0 0 0 0 0 0 0 0 0 0 0 0 0 0 0 0 0 0 0 0 0 0 0 0 0 0 0 0 0 0
0 0 0 0 0 0 0 0 0 0 0 0 0 0 0 0 0 0 0 0 0 0 0 0 0 0 0 0 0 0 0 0 0 0 0 0 0 0 0 0 0 0 0
0 0 0 0 0 0 0 0 0 0 0 0 0 0 0 0 0 0 0 0 0 0 0 0 0 0 0 0 0 0 0 0 0 0 0 0 0 0 0 0 0 0 0
0 0 0 0 0 0 0 0 0 0 0 0 0 0 0 0 0 0 0 0 0 0 0 0 0 0 0 0 0 0 0 0 0 0 0 0 0 0 0 0 0 0 0
0 0 0 0 0 0 0 0 0 0 0 0 0 0 0 0 0 0 0 0 0 0 0 0 0 0 0 0 0 0 0 0 0 0 0 0 0 0 0 0 0 0 0
0 0 0 0 0 0 0 0 0 0 0 0 0 0 0 0 0 0 0 0 0 0 0 0 0 0 0 0 0 0 0 0 0 0 0 0 0 0 0 0 0 0 0
0 0 0 0 0 0 0 0 0 0 0 0 0 0 0 0 0 0 0 0 0 0 0 0 0 0 0 0 0 0 0 0 0 0 0 0 0 0 0 0 0 0 0
0 0 0 0 0 0 0 0 0 0 0 0 0 0 0 0 0 0 0 0 0 0 0 0 0 0 0 0 0 0 0 0 0 0 0 0 0 0 0 0 0 0 0
0 0 0 0 0 0 0 0 0 0 0 0 0 0 0 0 0 0 0 0 0 0 0 0 0 0 0 0 0 0 0 0 0 0 0 0 0 0 0 0 0 0 0
Wind_Speed
13 12 11 11 11 10 9 9 9 9 10 10 10 10 9 9 8 7 6 6 6 5 4 5 4 3 2 2 2 2 2 2 4 4 2 2 2 3 4 3 4 4 5
11 11 11 11 11 10 9 9 9 9 9 10 10 9 9 8 8 8 8 7 7 6 5 5 4 3 3 2 2 2 2 2 2 4 3 2 3 3 3 4 4 4 4
11 11 11 11 11 11 10 9 9 9 9 9 9 9 9 8 8 7 7 7 6 5 5 5 4 4 3 2 2 2 2 2 1 2 3 2 2 3 3 4 5 4 5
11 11 12 12 11 10 10 9 9 9 10 9 9 8 8 7 7 7 6 6 5 5 4 4 4 4 4 3 2 2 1 1 1 2 3 3 3 3 3 4 4 3 5
11 11 11 10 10 10 10 9 9 9 9 9 9 8 7 6 6 7 6 6 6 5 4 4 4 4 3 2 1 1 1 1 1 1 2 3 3 3 3 3 4 4 5
11 11 10 11 11 10 10 10 10 9 9 9 9 9 8 5 9 10 8 6 6 6 5 4 4 4 3 2 1 1 1 1 1 1 2 3 3 3 3 3 4 5 5
10 11 11 11 11 11 11 11 10 9 9 9 9 9 8 8 11 11 9 6 6 5 5 4 3 2 3 2 1 1 1 2 2 1 1 3 3 3 3 3 3 4 5
11 11 11 11 12 11 11 11 9 8 9 8 9 9 8 8 11 11 11 7 6 5 5 5 4 3 2 2 2 2 1 2 2 1 1 2 3 3 2 2 4 5 4
11 12 12 12 13 12 12 11 9 9 8 8 8 9 8 8 11 11 10 6 5 5 5 5 5 3 3 4 3 1 1 2 4 5 6 6 8 9 6 3 3 4 5
12 12 12 12 13 12 12 10 9 9 8 8 8 8 8 8 10 11 10 5 6 5 4 4 5 5 4 4 3 2 0 2 2 3 4 5 4 5 8 3 2 3 4
11 11 12 12 12 12 11 10 10 10 10 9 9 7 7 8 10 11 10 5 5 5 4 3 3 5 5 4 3 1 1 2 1 2 2 2 3 2 3 2 1 2 3
12 12 12 12 11 11 12 11 11 11 11 9 9 8 6 7 9 10 11 9 8 6 4 3 3 5 5 4 3 3 5 5 2 2 2 2 2 3 3 3 3 3 3
13 13 12 12 10 11 12 13 11 10 9 8 8 7 6 5 6 12 11 11 10 6 5 7 6 6 5 3 3 5 4 3 2 2 2 2 2 3 3 3 3 4 4
14 13 12 12 11 10 9 9 9 9 9 8 8 8 7 5 5 5 5 6 8 7 5 6 7 6 4 3 3 3 2 1 1 1 2 2 2 2 2 2 3 3 4
14 13 12 11 12 10 8 6 7 6 9 10 8 8 9 7 7 11 8 5 5 5 6 4 3 2 2 1 1 1 1 2 2 2 2 2 3 3 3 3 3 3 3
14 13 11 10 10 10 10 10 12 10 14 13 12 11 8 11 15 14 13 11 11 11 6 3 2 2 2 1 1 1 1 1 1 2 2 2 3 3 4 4 3 3 4
14 13 11 11 11 11 10 12 11 11 15 14 15 15 14 17 16 15 14 12 11 9 4 3 2 2 1 1 1 0 1 1 1 1 2 2 3 3 4 4 4 4 4
13 14 13 11 11 11 10 10 10 11 10 7 9 15 17 17 16 15 14 10 5 4 3 3 2 2 2 1 1 0 0 1 1 2 2 2 2 3 4 4 4 5 5
13 11 11 10 10 10 10 10 10 10 10 9 7 9 13 14 14 13 10 5 5 4 3 2 2 2 1 1 1 0 0 1 1 1 2 2 2 3 3 4 4 8 6
10 15 14 12 11 11 10 10 10 10 10 9 8 8 7 7 5 5 4 4 4 3 3 3 2 2 2 1 1 0 0 1 1 1 2 2 2 3 3 4 4 4 4
11 13 17 12 11 11 10 10 10 10 9 8 7 8 12 7 6 6 4 4 4 3 3 2 2 2 2 1 1 0 1 1 1 2 2 2 2 3 3 4 4 4 4
11 11 10 11 10 10 10 9 10 10 10 10 8 8 13 6 5 5 4 4 3 3 3 3 2 2 2 2 1 1 1 1 1 2 2 2 2 3 3 4 4 4 4
11 12 11 10 10 14 12 9 9 10 9 9 8 7 7 6 5 5 5 4 4 3 3 3 2 1 1 1 1 1 1 2 2 1 2 2 3 3 3 4 5 5 5
12 13 13 12 11 10 11 10 9 10 10 9 8 7 6 6 5 5 5 4 4 3 3 2 2 2 2 1 1 1 1 2 2 2 3 3 3 3 4 4 4 5 5
12 12 12 12 11 11 11 10 10 10 9 9 8 7 7 6 6 5 4 4 4 3 3 2 2 2 2 2 2 2 3 5 5 3 3 3 4 4 4 4 4 4 4
12 12 11 10 10 11 11 11 10 10 9 8 8 7 7 6 6 5 4 4 4 3 2 2 2 2 2 2 3 4 5 6 7 7 3 3 3 4 4 4 4 4 4
Wind_Direction
175 175 174 177 177 176 178 176 169 166 164 169 172 172 173 174 172 169 171 172 177 180 177 183 197 186 180 189 191 198 210 201 248 276 280 297 314 304 308 301 290 291 298
171 168 171 169 170 173 175 170 164 163 163 163 165 167 170 170 169 170 173 172 176 183 182 179 188 170 178 183 186 208 222 221 230 271 288 297 292 295 301 301 306 308 302
163 163 165 167 169 172 170 165 160 158 155 155 158 162 163 164 164 166 166 169 174 175 169 172 176 166 182 177 186 207 229 252 250 268 285 296 305 316 318 312 312 311 313
160 162 166 168 168 165 161 157 155 152 150 151 152 153 153 153 155 154 153 156 158 156 156 161 162 164 172 173 185 205 218 260 288 293 297 309 313 322 331 317 317 315 312
157 160 162 158 154 152 151 151 146 144 144 143 141 140 141 144 148 148 149 152 152 149 147 147 147 143 146 156 160 185 177 206 280 291 296 311 313 332 321 314 312 310 303
154 155 150 148 149 149 147 143 139 138 138 139 141 141 140 141 145 147 148 147 147 146 145 139 138 135 134 145 198 203 160 185 251 279 288 298 300 306 310 319 319 326 314
149 147 147 146 146 146 143 142 142 142 139 139 139 138 138 141 145 144 141 138 135 136 135 133 124 117 117 111 112 45 6 351 337 299 279 282 294 302 313 311 311 310 297
148 149 148 146 144 143 144 144 142 140 142 140 138 136 133 139 144 143 137 126 121 122 124 127 126 122 112 108 98 77 43 2 338 332 266 277 297 300 296 309 306 310 299
153 155 153 150 147 147 147 147 143 139 137 137 135 135 133 138 142 142 136 125 121 119 116 115 119 123 108 94 96 89 26 337 340 342 342 338 339 339 347 0 346 335 319
158 155 152 149 149 148 147 142 138 136 134 129 125 128 132 135 140 138 132 125 122 119 111 109 107 108 106 100 108 111 37 303 339 345 343 340 344 344 349 357 336 322 318
148 145 147 147 146 143 139 138 136 132 128 124 121 118 122 128 135 135 130 125 132 126 122 115 111 109 102 95 87 102 341 4 14 358 342 340 345 341 334 327 308 286 292
143 143 145 145 142 140 137 135 135 134 132 129 123 115 111 122 130 134 128 121 123 122 127 126 119 111 99 86 71 34 26 31 33 14 356 340 331 324 321 318 308 293 270
143 144 143 140 138 140 140 140 139 139 138 138 134 131 127 120 127 130 127 122 119 115 121 122 115 106 93 74 52 45 44 47 34 9 336 319 314 314 323 325 320 310 300
146 145 143 141 138 135 136 140 143 146 143 142 143 139 135 131 132 133 129 122 116 111 110 114 109 101 89 77 63 51 46 36 28 337 315 315 323 332 330 325 321 322 320
146 145 143 140 137 131 121 121 133 140 151 150 151 148 148 150 155 147 140 133 132 129 119 101 90 93 83 71 62 55 40 19 8 349 343 334 331 335 331 330 324 327 321
148 148 146 141 135 130 121 99 81 105 118 122 130 134 133 137 140 138 134 131 132 131 116 117 121 119 117 104 76 36 22 7 356 347 338 333 333 331 326 327 328 324 317
152 150 146 144 141 139 136 130 118 94 94 109 122 127 131 136 136 135 132 129 131 128 111 122 129 131 127 119 109 81 347 343 352 341 333 332 333 328 327 325 323 321 317
147 147 146 145 143 142 140 136 135 134 127 111 116 127 131 133 134 134 133 125 122 114 116 131 136 134 129 123 114 79 358 346 344 336 329 324 321 321 322 321 320 317 316
147 145 142 138 136 136 135 132 131 130 130 129 123 125 130 129 129 134 134 124 133 133 130 132 134 133 130 125 114 76 349 318 321 319 315 315 315 313 311 312 314 321 324
141 141 140 138 137 137 136 135 135 135 135 138 141 141 137 130 130 134 126 125 130 134 135 136 136 136 137 138 136 134 306 305 309 300 297 302 306 308 307 307 311 314 313
139 139 137 135 138 139 139 140 139 138 139 139 141 149 150 140 142 141 139 136 137 138 138 138 139 140 144 148 147 177 262 278 283 288 293 299 305 307 305 304 305 305 310
138 139 140 139 136 135 135 137 136 136 137 136 136 143 147 133 135 137 136 136 134 134 136 136 138 146 155 158 160 181 247 271 279 286 292 299 303 302 301 301 304 308 311
136 135 133 132 132 135 132 133 134 135 136 136 138 138 141 138 137 136 136 134 132 129 127 128 134 141 147 155 163 181 221 249 264 271 285 294 295 296 298 299 302 308 311
138 138 137 136 134 136 136 135 134 134 135 136 137 139 139 137 135 134 134 133 131 129 130 134 145 161 171 177 190 195 218 242 251 252 258 269 280 285 288 293 296 300 301
139 139 139 139 139 138 136 136 135 135 136 138 139 138 136 134 134 135 136 135 134 135 140 143 151 167 186 208 218 226 255 269 273 263 243 250 266 273 279 286 290 294 295
137 137 136 136 137 138 139 139 138 138 138 138 137 138 138 138 140 141 141 139 137 140 146 154 170 184 205 223 238 251 267 277 281 281 265 243 255 269 276 279 287 291 294